FW6249 Weather Reports


time (UTC)temp
F
wind
direction
speed
knots
gust
knots
rain 1hr
in
rain 24hr
in
rain mn
in
humidity
%
barometer
mb
20260510190051 81 341 0.9 3.5 0.00 0.00 0.00 42 1013.1
20260510184549 81 162 0.0 2.6 0.00 0.00 0.00 39 1013.1
20260510183050 81 0 0.9 3.5 0.00 0.00 0.00 38 1013.3
20260510181605 80 323 0.9 2.6 0.00 0.00 0.00 40 1013.4
20260510174549 80 306 0.9 2.6 0.00 0.00 0.00 39 1013.7
20260510173050 79 207 0.0 2.6 0.00 0.00 0.00 43 1013.5
20260510171550 79 165 1.7 2.6 0.00 0.00 0.00 41 1013.7
20260510170054 78 0 0.9 3.5 0.00 0.00 0.00 40 1014.0
20260510164548 78 0 0.0 0.9 0.00 0.00 0.00 44 1014.0
20260510163050 77 311 0.9 2.6 0.00 0.00 0.00 43 1014.0
20260510161546 77 0 0.0 0.9 0.00 0.00 0.00 48 1014.1
20260510160052 77 0 0.0 2.6 0.00 0.00 0.00 50 1014.2
20260510154557 76 55 0.0 2.6 0.00 0.00 0.00 47 1014.4
20260510153053 75 90 0.9 2.6 0.00 0.00 0.00 49 1014.4
20260510151547 75 0 0.0 4.3 0.00 0.00 0.00 49 1014.6
20260510150108 74 76 0.0 2.6 0.00 0.00 0.00 52 1014.5
20260510144552 72 0 0.0 1.7 0.00 0.00 0.00 54 1014.4
20260510143049 71 0 0.0 0.9 0.00 0.00 0.00 58 1014.3
20260510141548 70 0 0.0 0.0 0.00 0.00 0.00 64 1014.2
20260510140044 69 0 0.0 0.0 0.00 0.00 0.00 73 1014.1
20260510134551 68 0 0.0 1.7 0.00 0.00 0.00 72 1014.1
20260510133050 66 0 0.0 0.0 0.00 0.00 0.00 78 1014.2
20260510131549 64 0 0.0 0.0 0.00 0.00 0.00 84 1014.2
20260510130053 62 0 0.0 0.0 0.00 0.00 0.00 90 1014.0
20260510124543 60 0 0.0 0.0 0.00 0.00 0.00 95 1013.9
20260510123043 59 0 0.0 0.0 0.00 0.00 0.00 97 1013.9
20260510121542 57 0 0.0 0.0 0.00 0.00 0.00 97 1013.8
20260510120054 56 0 0.0 0.0 0.00 0.00 0.00 97 1013.6
20260510114550 55 0 0.0 0.0 0.00 0.00 0.00 97 1013.5
20260510113051 54 0 0.0 0.0 0.00 0.00 0.00 96 1013.4
20260510111601 54 0 0.0 0.0 0.00 0.00 0.00 95 1013.1
20260510110046 54 0 0.0 0.0 0.00 0.00 0.00 95 1012.9
20260510104547 54 0 0.0 0.0 0.00 0.00 0.00 95 1012.6
20260510103047 54 0 0.0 0.0 0.00 0.00 0.00 95 1012.5
20260510101546 55 0 0.0 0.0 0.00 0.00 0.00 95 1012.3
20260510100052 55 0 0.0 0.0 0.00 0.00 0.00 94 1012.0
20260510094559 55 0 0.0 0.0 0.00 0.00 0.00 94 1011.7
20260510093105 56 0 0.0 0.0 0.00 0.00 0.00 94 1011.6
20260510091547 56 0 0.0 0.0 0.00 0.00 0.00 94 1011.5
20260510090049 56 0 0.0 0.0 0.00 0.00 0.00 94 1011.5
20260510084549 57 0 0.0 0.0 0.00 0.00 0.00 93 1011.1
20260510083104 57 0 0.0 0.0 0.00 0.00 0.00 93 1011.2
20260510081548 58 0 0.0 0.0 0.00 0.00 0.00 93 1011.3
20260510080056 58 0 0.0 0.0 0.00 0.00 0.00 93 1011.1
20260510074556 59 0 0.0 0.0 0.00 0.00 0.00 92 1011.0
20260510073055 59 0 0.0 0.0 0.00 0.00 0.00 91 1011.0
20260510071550 60 0 0.0 0.0 0.00 0.00 0.00 91 1010.9
20260510070049 60 0 0.0 0.0 0.00 0.00 0.00 90 1010.8
20260510064559 60 0 0.0 0.9 0.00 0.00 0.00 89 1010.8
20260510063053 61 0 0.0 0.0 0.00 0.00 0.00 89 1010.9
20260510061555 61 0 0.0 0.9 0.00 0.00 0.00 89 1011.0
20260510060052 61 0 0.0 0.9 0.00 0.00 0.00 89 1011.1
20260510054547 62 0 0.0 0.9 0.00 0.00 0.00 87 1011.1
20260510053049 62 0 0.0 1.7 0.00 0.00 0.00 88 1011.2
20260510051600 61 257 0.0 1.7 0.00 0.00 0.00 90 1011.3
20260510050047 61 0 0.0 0.9 0.00 0.00 0.00 89 1011.4
20260510044555 60 0 0.0 1.7 0.00 0.00 0.00 90 1011.3
20260510043048 60 0 0.0 0.0 0.00 0.00 0.00 89 1011.2
20260510041544 60 0 0.0 0.0 0.00 0.00 0.00 89 1011.1
20260510040052 60 0 0.0 0.0 0.00 0.00 0.00 88 1011.1
20260510034550 60 0 0.0 0.0 0.00 0.00 0.00 88 1011.0
20260510033058 61 0 0.0 0.0 0.00 0.00 0.00 88 1010.9
20260510031547 61 0 0.0 0.0 0.00 0.00 0.00 88 1010.8
20260510030053 61 0 0.0 0.0 0.00 0.00 0.00 87 1010.8
20260510024544 61 0 0.0 0.0 0.00 0.00 0.00 86 1010.6
20260510023050 61 0 0.0 0.0 0.00 0.00 0.00 86 1010.6
20260510021548 62 0 0.0 0.0 0.00 0.00 0.00 85 1010.5
20260510020049 62 0 0.0 0.0 0.00 0.00 0.00 84 1010.3
20260510014545 62 0 0.0 0.0 0.00 0.00 0.00 83 1010.0
20260510013044 63 0 0.0 0.0 0.00 0.00 0.00 82 1010.0
20260510011549 64 0 0.0 0.0 0.00 0.00 0.00 80 1009.9
20260510010051 65 0 0.0 0.0 0.00 0.00 0.00 80 1009.8
20260510004552 66 0 0.0 0.0 0.00 0.00 0.00 77 1009.7
20260510003048 67 0 0.0 0.0 0.00 0.00 0.00 76 1009.4
20260510001543 68 0 0.0 0.0 0.00 0.00 0.00 74 1009.2
20260510000049 69 0 0.0 0.0 0.00 0.00 0.00 72 1009.1
20260509234550 70 0 0.0 0.0 0.00 0.00 0.00 70 1008.9
20260509233048 72 0 0.0 0.0 0.00 0.00 0.00 67 1008.6
20260509231549 73 0 0.0 0.0 0.00 0.00 0.00 61 1008.8
20260509230057 74 0 0.0 1.7 0.00 0.00 0.00 56 1008.6
20260509224555 74 0 0.0 1.7 0.00 0.00 0.00 54 1008.7
20260509223054 74 275 0.0 2.6 0.00 0.00 0.00 53 1008.7
20260509221553 75 242 1.7 5.2 0.00 0.00 0.00 50 1008.6
20260509220103 75 268 0.0 1.7 0.00 0.00 0.00 51 1008.4
20260509214558 75 0 0.0 2.6 0.00 0.00 0.00 53 1008.3
20260509213122 75 276 0.9 3.5 0.00 0.00 0.00 53 1008.3
20260509211553 76 228 0.9 2.6 0.00 0.00 0.00 52 1008.1
20260509210100 75 206 0.9 5.2 0.00 0.00 0.00 52 1008.2
20260509204549 74 0 0.9 2.6 0.00 0.00 0.00 57 1008.2
20260509203054 74 273 0.0 7.0 0.00 0.00 0.00 54 1008.2
20260509201548 74 279 0.0 2.6 0.00 0.00 0.00 58 1008.4
20260509200047 74 302 0.9 5.2 0.00 0.00 0.00 55 1008.5
20260509194549 73 223 0.9 2.6 0.00 0.00 0.00 56 1008.7
20260509193052 73 296 0.9 3.5 0.00 0.00 0.00 62 1009.0
20260509191551 71 0 0.0 1.7 0.00 0.00 0.00 56 1009.1